Weather History for Eveleth, MN

Change the Weather History Date:

Tuesday, December 3, 2013

  Actual Average Record
Temperature  
Mean Temperature 26 °F -  
Max Temperature 32 °F 27 °F 50 °F (1998)
Min Temperature 21 °F 13 °F -16 °F (2002)
Degree Days  
Heating Degree Days 38    
Moisture  
Dew Point 26 °F    
Average Humidity 90    
Maximum Humidity 100    
Minimum Humidity 80    
Precipitation  
Precipitation 0.02 in - - ()
Sea Level Pressure  
Sea Level Pressure 29.81 in    
Wind  
Wind Speed 8 mph (ENE)    
Max Wind Speed 14 mph    
Max Gust Speed 26 mph    
Visibility 6 miles    
Events Snow    
Averages and records for this station are not official NWS values.
T = Trace of Precipitation, MM = Missing Value Source: NWS Daily Summary

Daily Weather History Graph

Daily Weather History Graph

Search for Another Location

Airport:

Trip Planner

Search our weather history database for the weather conditions in past years. The results will help you decide how hot, cold, wet, or windy it might be!

Date:

Astronomy

Dec. 03, 2013 Rise Set
Actual Time 7:39 AM CST 4:20 PM CST
Civil Twilight 7:04 AM CST 4:55 PM CST
Nautical Twilight 6:25 AM CST 5:34 PM CST
Astronomical Twilight 5:48 AM CST 6:11 PM CST
Moon 8:07 AM CST (12/3) 5:26 PM CST (12/3)
Length of Visible Light 9h 51m
Length of Day
8h 41m
New Moon, 1% of the Moon is Illuminated
Dec 3
New Moon
Dec 9
First Quarter
Dec 17
Full
Dec 25
Last Quarter
Jan 1
New

Hourly Weather History & Observations

Time (CST) Temp. Windchill Dew Point Humidity Pressure Visibility Wind Dir Wind Speed Gust Speed Precip Events Conditions
12:07 AM 32.0 °F 25.6 °F 32.0 °F 100% 29.71 in 2.5 mi East 6.9 mph - N/A Snow Light Snow
12:27 AM 32.0 °F 27.5 °F 32.0 °F 100% 29.71 in 4.0 mi East 4.6 mph - N/A Snow Light Snow
12:46 AM 32.0 °F 24.8 °F 32.0 °F 100% 29.71 in 7.0 mi East 8.1 mph - N/A Snow Light Snow
1:07 AM 32.0 °F 24.8 °F 32.0 °F 100% 29.71 in 10.0 mi East 8.1 mph - N/A   Overcast
1:27 AM 32.0 °F 25.6 °F 32.0 °F 100% 29.71 in 10.0 mi East 6.9 mph - N/A   Overcast
1:47 AM 32.0 °F 24.8 °F 30.2 °F 93% 29.71 in 10.0 mi East 8.1 mph - N/A   Overcast
2:07 AM 32.0 °F 25.6 °F 30.2 °F 93% 29.72 in 10.0 mi East 6.9 mph - N/A   Overcast
2:27 AM 32.0 °F 24.8 °F 30.2 °F 93% 29.72 in 10.0 mi East 8.1 mph - N/A   Overcast
2:47 AM 32.0 °F 24.8 °F 30.2 °F 93% 29.72 in 10.0 mi East 8.1 mph - N/A   Overcast
3:07 AM 32.0 °F 26.4 °F 30.2 °F 93% 29.72 in 10.0 mi East 5.8 mph - N/A   Overcast
3:27 AM 32.0 °F 24.8 °F 30.2 °F 93% 29.72 in 10.0 mi East 8.1 mph - N/A   Overcast
3:47 AM 32.0 °F 25.6 °F 30.2 °F 93% 29.72 in 10.0 mi East 6.9 mph - N/A   Overcast
4:07 AM 32.0 °F 26.4 °F 30.2 °F 93% 29.72 in 10.0 mi East 5.8 mph - N/A   Overcast
4:27 AM 32.0 °F 25.6 °F 30.2 °F 93% 29.72 in 10.0 mi East 6.9 mph - N/A   Overcast
4:47 AM 32.0 °F 25.6 °F 30.2 °F 93% 29.72 in 10.0 mi East 6.9 mph - N/A   Overcast
5:07 AM 32.0 °F 25.6 °F 30.2 °F 93% 29.73 in 10.0 mi East 6.9 mph - N/A   Overcast
5:27 AM 32.0 °F 26.4 °F 30.2 °F 93% 29.73 in 10.0 mi East 5.8 mph - N/A   Overcast
5:47 AM 32.0 °F 24.8 °F 30.2 °F 93% 29.74 in 10.0 mi East 8.1 mph - N/A   Overcast
6:07 AM 32.0 °F 24.8 °F 30.2 °F 93% 29.74 in 7.0 mi East 8.1 mph - N/A Snow Light Snow
6:27 AM 32.0 °F 26.4 °F 30.2 °F 93% 29.75 in 7.0 mi East 5.8 mph - N/A Snow Light Snow
6:47 AM 32.0 °F 24.8 °F 30.2 °F 93% 29.74 in 5.0 mi East 8.1 mph - N/A Snow Light Snow
7:06 AM 32.0 °F 24.8 °F 30.2 °F 93% 29.74 in 7.0 mi East 8.1 mph - N/A Snow Light Snow
7:27 AM 32.0 °F 24.8 °F 30.2 °F 93% 29.74 in 10.0 mi East 8.1 mph - N/A   Overcast
7:47 AM 32.0 °F 24.2 °F 30.2 °F 93% 29.75 in 10.0 mi East 9.2 mph - N/A   Overcast
8:06 AM 32.0 °F 23.6 °F 30.2 °F 93% 29.76 in 10.0 mi East 10.4 mph 17.3 mph N/A   Overcast
8:27 AM 32.0 °F 26.4 °F 30.2 °F 93% 29.77 in 10.0 mi East 5.8 mph - N/A   Overcast
8:47 AM 32.0 °F 24.8 °F 30.2 °F 93% 29.78 in 10.0 mi East 8.1 mph - N/A   Overcast
9:07 AM 32.0 °F 24.8 °F 30.2 °F 93% 29.78 in 10.0 mi East 8.1 mph - N/A   Overcast
9:27 AM 32.0 °F 23.6 °F 30.2 °F 93% 29.79 in 4.0 mi East 10.4 mph - N/A   Overcast
9:47 AM 32.0 °F 24.2 °F 30.2 °F 93% 29.80 in 2.0 mi East 9.2 mph 18.4 mph N/A Snow Light Snow
10:07 AM 32.0 °F 24.8 °F 30.2 °F 93% 29.81 in 1.8 mi East 8.1 mph - N/A Snow Light Snow
10:27 AM 32.0 °F 24.2 °F 30.2 °F 93% 29.81 in 1.8 mi East 9.2 mph - N/A Snow Light Snow
10:47 AM 32.0 °F 22.5 °F 30.2 °F 93% 29.81 in 1.5 mi East 12.7 mph 17.3 mph 0.01 in Snow Light Snow
11:07 AM 32.0 °F 23.0 °F 30.2 °F 93% 29.81 in 2.5 mi East 11.5 mph 19.6 mph N/A Snow Light Snow
11:27 AM 32.0 °F 23.0 °F 30.2 °F 93% 29.81 in 2.0 mi East 11.5 mph 24.2 mph N/A Snow Light Snow
11:47 AM 32.0 °F 24.2 °F 30.2 °F 93% 29.82 in 2.0 mi East 9.2 mph - N/A Snow Light Snow
12:07 PM 32.0 °F 24.2 °F 30.2 °F 93% 29.82 in 2.0 mi East 9.2 mph - N/A Snow Light Snow
12:27 PM 32.0 °F 22.1 °F 30.2 °F 93% 29.81 in 1.5 mi East 13.8 mph 21.9 mph N/A Snow Light Snow
12:47 PM 32.0 °F 22.1 °F 28.4 °F 87% 29.81 in 1.8 mi East 13.8 mph 21.9 mph N/A Snow Light Snow
1:07 PM 30.2 °F 22.6 °F 26.6 °F 86% 29.81 in 2.0 mi East 8.1 mph - N/A Snow Light Snow
1:26 PM 30.2 °F 21.9 °F 26.6 °F 86% 29.82 in 3.0 mi East 9.2 mph 18.4 mph N/A Snow Light Snow
1:47 PM 30.2 °F 20.2 °F 26.6 °F 86% 29.82 in 3.0 mi East 12.7 mph 20.7 mph N/A Snow Light Snow
2:06 PM 30.2 °F 19.8 °F 26.6 °F 86% 29.83 in 3.0 mi East 13.8 mph 26.5 mph N/A Snow Light Snow
2:27 PM 30.2 °F 21.3 °F 26.6 °F 86% 29.83 in 4.0 mi East 10.4 mph 19.6 mph N/A Snow Light Snow
2:46 PM 30.2 °F 21.3 °F 26.6 °F 86% 29.84 in 5.0 mi ENE 10.4 mph - N/A Snow Light Snow
3:07 PM 28.4 °F 18.0 °F 24.8 °F 86% 29.85 in 2.5 mi ENE 12.7 mph 18.4 mph N/A Snow Light Snow
3:27 PM 28.4 °F 19.1 °F 23.0 °F 80% 29.86 in 5.0 mi East 10.4 mph 19.6 mph N/A Snow Light Snow
3:46 PM 28.4 °F 18.5 °F 23.0 °F 80% 29.86 in 7.0 mi East 11.5 mph 18.4 mph N/A Snow Light Snow
4:07 PM 26.6 °F 16.2 °F 23.0 °F 86% 29.87 in 7.0 mi ENE 11.5 mph 18.4 mph N/A Snow Light Snow
4:27 PM 26.6 °F 15.7 °F 21.2 °F 80% 29.87 in 10.0 mi ENE 12.7 mph 18.4 mph N/A Snow Light Snow
4:46 PM 26.6 °F 16.2 °F 21.2 °F 80% 29.87 in 10.0 mi ENE 11.5 mph 19.6 mph N/A Snow Light Snow
5:07 PM 24.8 °F 14.6 °F 21.2 °F 86% 29.88 in 10.0 mi ENE 10.4 mph 18.4 mph N/A Snow Light Snow
5:27 PM 24.8 °F 14.0 °F 19.4 °F 80% 29.88 in 10.0 mi ENE 11.5 mph 18.4 mph N/A Snow Light Snow
5:47 PM 24.8 °F 15.3 °F 19.4 °F 80% 29.89 in 10.0 mi ENE 9.2 mph 19.6 mph N/A Snow Light Snow
6:07 PM 24.8 °F 12.9 °F 19.4 °F 80% 29.89 in 10.0 mi ENE 13.8 mph 20.7 mph N/A Snow Light Snow
6:27 PM 24.8 °F 13.4 °F 19.4 °F 80% 29.90 in 10.0 mi ENE 12.7 mph 19.6 mph N/A Snow Light Snow
6:47 PM 24.8 °F 14.0 °F 19.4 °F 80% 29.91 in 10.0 mi ENE 11.5 mph 18.4 mph N/A Snow Light Snow
7:07 PM 24.8 °F 13.4 °F 19.4 °F 80% 29.91 in 7.0 mi ENE 12.7 mph 16.1 mph N/A Snow Light Snow
7:27 PM 24.8 °F 13.4 °F 19.4 °F 80% 29.90 in 7.0 mi East 12.7 mph 20.7 mph N/A Snow Light Snow
7:47 PM 24.8 °F 16.9 °F 19.4 °F 80% 29.91 in 7.0 mi ENE 6.9 mph - N/A Snow Light Snow
8:07 PM 23.0 °F 13.9 °F 19.4 °F 86% 29.91 in 7.0 mi ENE 8.1 mph - N/A Snow Light Snow
8:27 PM 23.0 °F 12.4 °F 19.4 °F 86% 29.91 in 10.0 mi ENE 10.4 mph - N/A Snow Light Snow
8:47 PM 23.0 °F 13.9 °F 19.4 °F 86% 29.90 in 10.0 mi ENE 8.1 mph 16.1 mph N/A Snow Light Snow
9:07 PM 23.0 °F 13.9 °F 19.4 °F 86% 29.90 in 1.8 mi ENE 8.1 mph - N/A Snow Light Snow
9:26 PM 23.0 °F 12.4 °F 19.4 °F 86% 29.91 in 1.0 mi ENE 10.4 mph - N/A Snow Snow
9:47 PM 23.0 °F 13.1 °F 21.2 °F 93% 29.93 in 1.5 mi NE 9.2 mph - 0.01 in Snow Light Snow
10:07 PM 21.2 °F 10.9 °F 19.4 °F 93% 29.92 in 1.2 mi ENE 9.2 mph - N/A Snow Light Snow
10:26 PM 21.2 °F 10.1 °F 19.4 °F 93% 29.92 in 1.2 mi ENE 10.4 mph - N/A Snow Light Snow
10:47 PM 21.2 °F 10.1 °F 19.4 °F 93% 29.92 in 1.5 mi ENE 10.4 mph - N/A Snow Light Snow
11:07 PM 21.2 °F 11.7 °F 17.6 °F 86% 29.91 in 1.5 mi NE 8.1 mph - N/A Snow Light Snow
11:26 PM 21.2 °F 9.5 °F 17.6 °F 86% 29.92 in 1.8 mi NE 11.5 mph - N/A Snow Light Snow
11:47 PM 21.2 °F 10.9 °F 17.6 °F 86% 29.90 in 2.0 mi NE 9.2 mph - N/A Snow Light Snow